NKS3 KMCO-KEWR

Flight info

Callsign NKS3
Flight time 2h 6m
Altitude 33000
Route FATHE4 VIYAP Q87 ALWZZ OGRAE Q99 QUART PHLBO4
Aircraft A321/M-SDE3FGHIRWY/LB1

Departure

Time 2026-05-05 02:59
Airport Orlando International Airport (KMCO)

Arrival

Time 2026-05-05 05:05
Airport Newark Liberty International Airport (KEWR)
Time Latitude Longitude Altitude Speed Heading
2026-05-05 02:39 28.42581 -81.29975 103 ft 0 kts 277°
2026-05-05 02:40 28.42580 -81.29975 103 ft 0 kts 277°
2026-05-05 02:48 28.42580 -81.29968 103 ft 4 kts 273°
2026-05-05 02:48 28.42576 -81.29939 102 ft 4 kts 283°
2026-05-05 02:48 28.42568 -81.29909 103 ft 4 kts 291°
2026-05-05 02:49 28.42565 -81.29899 102 ft 1 kts 291°
2026-05-05 02:49 28.42565 -81.29898 102 ft 0 kts 291°
2026-05-05 02:51 28.42565 -81.29903 103 ft 3 kts 280°
2026-05-05 02:51 28.42540 -81.29918 103 ft 5 kts 163°
2026-05-05 02:51 28.42542 -81.29884 103 ft 6 kts 37°
2026-05-05 02:52 28.42586 -81.29865 102 ft 7 kts 27°
2026-05-05 02:52 28.42593 -81.29814 103 ft 7 kts 116°
2026-05-05 02:52 28.42541 -81.29795 103 ft 10 kts 178°
2026-05-05 02:52 28.42461 -81.29794 102 ft 12 kts 179°
2026-05-05 02:53 28.42373 -81.29793 102 ft 13 kts 179°
2026-05-05 02:53 28.42281 -81.29792 102 ft 14 kts 179°
2026-05-05 02:53 28.42184 -81.29791 102 ft 14 kts 179°
2026-05-05 02:53 28.42082 -81.29790 102 ft 15 kts 180°
2026-05-05 02:54 28.41977 -81.29790 102 ft 15 kts 179°
2026-05-05 02:54 28.41869 -81.29789 102 ft 16 kts 179°
2026-05-05 02:54 28.41757 -81.29788 101 ft 16 kts 179°
2026-05-05 02:54 28.41643 -81.29785 101 ft 17 kts 179°
2026-05-05 02:55 28.41525 -81.29784 102 ft 17 kts 180°
2026-05-05 02:55 28.41406 -81.29783 101 ft 16 kts 179°
2026-05-05 02:55 28.41331 -81.29781 101 ft 0 kts 178°
2026-05-05 02:56 28.41315 -81.29781 101 ft 9 kts 179°
2026-05-05 02:56 28.41229 -81.29780 101 ft 13 kts 180°
2026-05-05 02:56 28.41135 -81.29780 101 ft 14 kts 180°
2026-05-05 02:56 28.41039 -81.29779 101 ft 13 kts 179°
2026-05-05 02:57 28.40947 -81.29779 101 ft 14 kts 179°
2026-05-05 02:57 28.40852 -81.29777 100 ft 13 kts 178°
2026-05-05 02:57 28.40821 -81.29699 100 ft 13 kts 90°
2026-05-05 02:57 28.40825 -81.29590 98 ft 14 kts 75°
2026-05-05 02:58 28.40909 -81.29560 99 ft 15 kts 360°
2026-05-05 02:58 28.41185 -81.29562 101 ft 73 kts 360°
2026-05-05 02:58 28.41908 -81.29570 104 ft 133 kts 359°
2026-05-05 02:58 28.42999 -81.29564 127 ft 176 kts
2026-05-05 02:59 28.44225 -81.29507 754 ft 174 kts
2026-05-05 02:59 28.45386 -81.29185 1370 ft 173 kts 28°
2026-05-05 02:59 28.46493 -81.28532 1636 ft 188 kts 31°
2026-05-05 02:59 28.47699 -81.27767 1763 ft 210 kts 32°
2026-05-05 03:00 28.49046 -81.26890 1882 ft 236 kts 32°
2026-05-05 03:00 28.50534 -81.25921 2248 ft 253 kts 31°
2026-05-05 03:00 28.52216 -81.25267 2878 ft 262 kts
2026-05-05 03:00 28.54049 -81.25138 3583 ft 265 kts
2026-05-05 03:01 28.55908 -81.25098 4288 ft 269 kts
2026-05-05 03:01 28.57797 -81.25157 4973 ft 273 kts 360°
2026-05-05 03:01 28.59717 -81.25308 5641 ft 277 kts 355°
2026-05-05 03:01 28.61630 -81.25570 6298 ft 280 kts 353°
2026-05-05 03:02 28.63574 -81.25872 6955 ft 283 kts 352°
2026-05-05 03:02 28.65541 -81.26182 7602 ft 287 kts 352°
2026-05-05 03:02 28.67529 -81.26489 8231 ft 290 kts 352°
2026-05-05 03:02 28.69540 -81.26789 8841 ft 293 kts 352°
2026-05-05 03:03 28.71581 -81.27085 9449 ft 296 kts 352°
2026-05-05 03:03 28.73632 -81.27377 10074 ft 299 kts 352°
2026-05-05 03:03 28.75747 -81.27675 10320 ft 316 kts 352°
2026-05-05 03:03 28.77998 -81.27992 10457 ft 335 kts 352°
2026-05-05 03:04 28.80378 -81.28327 10588 ft 354 kts 352°
2026-05-05 03:04 28.82889 -81.28681 10715 ft 372 kts 352°
2026-05-05 03:04 28.85488 -81.29025 11119 ft 380 kts 353°
2026-05-05 03:04 28.88132 -81.29294 11667 ft 383 kts 354°
2026-05-05 03:05 28.90808 -81.29512 12250 ft 385 kts 354°
2026-05-05 03:05 28.93490 -81.29706 12830 ft 388 kts 354°
2026-05-05 03:05 28.96195 -81.29904 13395 ft 391 kts 354°
2026-05-05 03:05 28.98916 -81.30111 13955 ft 394 kts 354°
2026-05-05 03:06 29.01656 -81.30351 14495 ft 396 kts 353°
2026-05-05 03:06 29.04408 -81.30640 15055 ft 399 kts 352°
2026-05-05 03:06 29.07180 -81.30961 15587 ft 401 kts 351°
2026-05-05 03:06 29.09938 -81.31290 16106 ft 404 kts 351°
2026-05-05 03:07 29.12787 -81.31596 16630 ft 407 kts 352°
2026-05-05 03:07 29.15588 -81.31813 17135 ft 411 kts 353°
2026-05-05 03:07 29.18452 -81.31976 17629 ft 414 kts 354°
2026-05-05 03:07 29.21335 -81.32111 18113 ft 417 kts 354°
2026-05-05 03:08 29.24249 -81.32244 18570 ft 419 kts 354°
2026-05-05 03:08 29.27172 -81.32389 18996 ft 422 kts 354°
2026-05-05 03:08 29.30119 -81.32553 19384 ft 425 kts 353°
2026-05-05 03:08 29.33085 -81.32734 19800 ft 428 kts 353°
2026-05-05 03:09 29.36066 -81.32921 20217 ft 430 kts 353°
2026-05-05 03:09 29.39062 -81.33111 20628 ft 432 kts 353°
2026-05-05 03:09 29.42081 -81.33297 21029 ft 435 kts 353°
2026-05-05 03:09 29.45112 -81.33482 21416 ft 437 kts 353°
2026-05-05 03:10 29.48153 -81.33662 21794 ft 439 kts 353°
2026-05-05 03:10 29.51206 -81.33843 22163 ft 441 kts 353°
2026-05-05 03:10 29.54276 -81.34026 22515 ft 443 kts 353°
2026-05-05 03:10 29.57360 -81.34212 22868 ft 445 kts 353°
2026-05-05 03:11 29.60465 -81.34399 23211 ft 447 kts 353°
2026-05-05 03:11 29.63576 -81.34588 23538 ft 449 kts 353°
2026-05-05 03:11 29.66698 -81.34776 23890 ft 450 kts 353°
2026-05-05 03:11 29.69833 -81.34960 24220 ft 452 kts 353°
2026-05-05 03:12 29.72980 -81.35144 24538 ft 454 kts 352°
2026-05-05 03:12 29.76142 -81.35327 24864 ft 456 kts 352°
2026-05-05 03:12 29.79315 -81.35509 25177 ft 457 kts 352°
2026-05-05 03:12 29.82500 -81.35688 25477 ft 459 kts 352°
2026-05-05 03:13 29.85685 -81.35867 25786 ft 460 kts 352°
2026-05-05 03:13 29.88889 -81.36046 26090 ft 461 kts 352°
2026-05-05 03:13 29.92105 -81.36229 26387 ft 463 kts 351°
2026-05-05 03:13 29.95324 -81.36414 26673 ft 465 kts 351°
2026-05-05 03:14 29.98553 -81.36601 26967 ft 466 kts 351°
2026-05-05 03:14 30.01793 -81.36786 27317 ft 465 kts 351°
2026-05-05 03:14 30.05022 -81.36968 27696 ft 464 kts 351°
2026-05-05 03:14 30.08241 -81.37152 28067 ft 463 kts 351°
2026-05-05 03:15 30.11455 -81.37341 28436 ft 461 kts 351°
2026-05-05 03:15 30.14659 -81.37529 28808 ft 460 kts 350°
2026-05-05 03:15 30.17849 -81.37716 29196 ft 458 kts 350°
2026-05-05 03:15 30.21030 -81.37901 29565 ft 456 kts 349°
2026-05-05 03:16 30.24199 -81.38085 29923 ft 456 kts 349°
2026-05-05 03:16 30.27363 -81.38268 30285 ft 454 kts 349°
2026-05-05 03:16 30.30514 -81.38448 30631 ft 453 kts 349°
2026-05-05 03:16 30.33654 -81.38629 30967 ft 451 kts 349°
2026-05-05 03:17 30.36788 -81.38811 31294 ft 450 kts 349°
2026-05-05 03:17 30.39906 -81.38992 31604 ft 449 kts 349°
2026-05-05 03:17 30.43024 -81.39172 31893 ft 448 kts 349°
2026-05-05 03:17 30.46133 -81.39354 32174 ft 447 kts 349°
2026-05-05 03:18 30.49249 -81.39530 32477 ft 446 kts 350°
2026-05-05 03:18 30.52346 -81.39693 32763 ft 446 kts 350°
2026-05-05 03:18 30.55443 -81.39848 33041 ft 445 kts 350°
2026-05-05 03:19 30.64722 -81.40334 33128 ft 444 kts 350°
2026-05-05 03:19 30.70865 -81.40657 33128 ft 444 kts 350°
2026-05-05 03:20 30.77049 -81.40991 33127 ft 444 kts 350°
2026-05-05 03:20 30.83235 -81.41325 33118 ft 445 kts 350°
2026-05-05 03:21 30.89428 -81.41649 33121 ft 446 kts 350°
2026-05-05 03:21 30.95626 -81.41975 33117 ft 446 kts 350°
2026-05-05 03:22 31.01824 -81.42308 33114 ft 446 kts 350°
2026-05-05 03:22 31.08032 -81.42645 33113 ft 446 kts 350°
2026-05-05 03:23 31.14250 -81.42979 33114 ft 446 kts 350°
2026-05-05 03:23 31.20459 -81.43298 33113 ft 447 kts 351°
2026-05-05 03:24 31.26723 -81.42491 33113 ft 464 kts 10°
2026-05-05 03:24 31.31739 -81.40057 33116 ft 472 kts 18°
2026-05-05 03:25 31.37697 -81.36807 33117 ft 473 kts 18°
2026-05-05 03:25 31.43658 -81.33568 33121 ft 472 kts 18°
2026-05-05 03:26 31.49623 -81.30336 33115 ft 472 kts 18°
2026-05-05 03:26 31.55582 -81.27108 33111 ft 472 kts 18°
2026-05-05 03:27 31.61550 -81.23855 33107 ft 473 kts 19°
2026-05-05 03:27 31.67516 -81.20589 33107 ft 473 kts 18°
2026-05-05 03:28 31.73482 -81.17323 33108 ft 473 kts 19°
2026-05-05 03:28 31.79453 -81.14053 33108 ft 473 kts 19°
2026-05-05 03:29 31.85431 -81.10787 33107 ft 473 kts 19°
2026-05-05 03:29 31.91410 -81.07512 33096 ft 474 kts 19°
2026-05-05 03:30 31.97393 -81.04219 33096 ft 474 kts 19°
2026-05-05 03:30 32.03370 -81.00913 33094 ft 476 kts 20°
2026-05-05 03:31 32.09353 -80.97573 33106 ft 475 kts 20°
2026-05-05 03:31 32.15321 -80.94210 33114 ft 475 kts 20°
2026-05-05 03:32 32.21285 -80.90849 33117 ft 475 kts 20°
2026-05-05 03:32 32.27266 -80.87501 33124 ft 475 kts 20°
2026-05-05 03:33 32.33207 -80.84178 33127 ft 476 kts 20°
2026-05-05 03:33 32.39194 -80.80800 33131 ft 476 kts 20°
2026-05-05 03:34 32.45173 -80.77413 33136 ft 476 kts 20°
2026-05-05 03:34 32.51153 -80.74032 33138 ft 476 kts 20°
2026-05-05 03:35 32.57141 -80.70652 33136 ft 477 kts 20°
2026-05-05 03:35 32.63124 -80.67265 33139 ft 477 kts 20°
2026-05-05 03:36 32.69105 -80.63865 33136 ft 477 kts 20°
2026-05-05 03:36 32.75070 -80.60436 33133 ft 477 kts 21°
2026-05-05 03:37 32.81009 -80.56898 33140 ft 477 kts 22°
2026-05-05 03:37 32.86942 -80.53331 33143 ft 478 kts 22°
2026-05-05 03:38 32.92883 -80.49783 33145 ft 477 kts 22°
2026-05-05 03:38 32.98832 -80.46240 33144 ft 478 kts 22°
2026-05-05 03:39 33.04781 -80.42693 33144 ft 478 kts 22°
2026-05-05 03:39 33.10724 -80.39143 33140 ft 478 kts 22°
2026-05-05 03:40 33.16672 -80.35578 33138 ft 478 kts 22°
2026-05-05 03:40 33.22620 -80.32003 33136 ft 478 kts 22°
2026-05-05 03:41 33.28568 -80.28432 33131 ft 478 kts 22°
2026-05-05 03:41 33.34510 -80.24853 33137 ft 478 kts 22°
2026-05-05 03:42 33.40418 -80.21295 33135 ft 478 kts 22°
2026-05-05 03:42 33.46359 -80.17718 33135 ft 478 kts 22°
2026-05-05 03:43 33.52298 -80.14136 33138 ft 478 kts 23°
2026-05-05 03:43 33.58268 -80.10512 33139 ft 478 kts 23°
2026-05-05 03:44 33.64167 -80.06934 33138 ft 478 kts 23°
2026-05-05 03:44 33.70109 -80.03325 33136 ft 478 kts 23°
2026-05-05 03:45 33.76047 -79.99715 33138 ft 478 kts 23°
2026-05-05 03:45 33.81983 -79.96105 33137 ft 478 kts 23°
2026-05-05 03:46 33.87922 -79.92485 33139 ft 478 kts 23°
2026-05-05 03:46 33.93874 -79.88851 33140 ft 479 kts 23°
2026-05-05 03:47 33.99822 -79.85201 33142 ft 479 kts 23°
2026-05-05 03:47 34.05759 -79.81558 33137 ft 478 kts 23°
2026-05-05 03:48 34.11694 -79.77919 33134 ft 478 kts 23°
2026-05-05 03:48 34.17629 -79.74279 33130 ft 478 kts 23°
2026-05-05 03:49 34.23524 -79.70648 33128 ft 478 kts 23°
2026-05-05 03:49 34.29448 -79.66983 33133 ft 478 kts 23°
2026-05-05 03:50 34.35412 -79.63303 33131 ft 478 kts 23°
2026-05-05 03:50 34.41297 -79.59673 33133 ft 478 kts 23°
2026-05-05 03:51 34.47257 -79.55981 33133 ft 478 kts 23°
2026-05-05 03:51 34.53136 -79.52329 33131 ft 478 kts 23°
2026-05-05 03:52 34.59035 -79.48571 33126 ft 479 kts 25°
2026-05-05 03:52 34.64849 -79.44625 33128 ft 479 kts 25°
2026-05-05 03:53 34.70807 -79.41108 33125 ft 471 kts 13°
2026-05-05 03:53 34.77158 -79.39494 33126 ft 465 kts
2026-05-05 03:54 34.83531 -79.38166 33127 ft 465 kts
2026-05-05 03:54 34.89906 -79.36807 33124 ft 465 kts
2026-05-05 03:55 34.96275 -79.35448 33117 ft 464 kts
2026-05-05 03:55 35.02630 -79.34088 33109 ft 464 kts
2026-05-05 03:56 35.08986 -79.32724 33105 ft 463 kts
2026-05-05 03:56 35.15338 -79.31360 33108 ft 463 kts
2026-05-05 03:57 35.21678 -79.29996 33109 ft 462 kts
2026-05-05 03:57 35.28006 -79.28633 33113 ft 461 kts
2026-05-05 03:58 35.34328 -79.27274 33109 ft 461 kts
2026-05-05 03:58 35.40643 -79.25914 33109 ft 461 kts
2026-05-05 03:59 35.46962 -79.24547 33107 ft 461 kts
2026-05-05 03:59 35.53288 -79.23180 33105 ft 461 kts
2026-05-05 04:00 35.59595 -79.21811 33101 ft 460 kts
2026-05-05 04:00 35.65902 -79.20438 33098 ft 460 kts
2026-05-05 04:01 35.72200 -79.18933 33091 ft 464 kts 11°
2026-05-05 04:01 35.78061 -79.15516 33087 ft 477 kts 30°
2026-05-05 04:02 35.83480 -79.10776 33083 ft 478 kts 31°
2026-05-05 04:02 35.88919 -79.06056 33084 ft 478 kts 30°
2026-05-05 04:03 35.94358 -79.01335 33084 ft 478 kts 30°
2026-05-05 04:03 35.98907 -78.97367 33081 ft 477 kts 30°
2026-05-05 04:04 36.04320 -78.92618 33085 ft 477 kts 31°
2026-05-05 04:04 36.09725 -78.87872 33084 ft 476 kts 31°
2026-05-05 04:05 36.15125 -78.83137 33080 ft 475 kts 31°
2026-05-05 04:05 36.20517 -78.78400 33075 ft 475 kts 31°
2026-05-05 04:06 36.25865 -78.73677 33071 ft 474 kts 31°
2026-05-05 04:06 36.31276 -78.68890 33070 ft 474 kts 31°
2026-05-05 04:07 36.36616 -78.64180 33065 ft 474 kts 31°
2026-05-05 04:07 36.41990 -78.59424 33064 ft 474 kts 31°
2026-05-05 04:08 36.47398 -78.54729 33060 ft 473 kts 28°
2026-05-05 04:08 36.52957 -78.50393 33052 ft 471 kts 26°
2026-05-05 04:09 36.58562 -78.46158 33047 ft 471 kts 26°
2026-05-05 04:09 36.64136 -78.41852 33047 ft 472 kts 27°
2026-05-05 04:10 36.69687 -78.37463 33046 ft 472 kts 28°
2026-05-05 04:10 36.75237 -78.33056 33048 ft 472 kts 27°
2026-05-05 04:11 36.80780 -78.28676 33051 ft 471 kts 27°
2026-05-05 04:11 36.86321 -78.24305 33050 ft 471 kts 28°
2026-05-05 04:12 36.91860 -78.19926 33040 ft 470 kts 28°
2026-05-05 04:12 36.97381 -78.15547 33034 ft 470 kts 28°
2026-05-05 04:13 37.02908 -78.11150 33030 ft 470 kts 28°
2026-05-05 04:13 37.08424 -78.06757 33029 ft 470 kts 28°
2026-05-05 04:14 37.13941 -78.02349 33025 ft 470 kts 28°
2026-05-05 04:14 37.19416 -77.97969 33028 ft 469 kts 28°
2026-05-05 04:15 37.24921 -77.93566 33028 ft 469 kts 28°
2026-05-05 04:15 37.30421 -77.89162 33026 ft 468 kts 28°
2026-05-05 04:16 37.35917 -77.84758 33031 ft 468 kts 28°
2026-05-05 04:16 37.41402 -77.80345 33038 ft 467 kts 29°
2026-05-05 04:17 37.46875 -77.75924 33029 ft 467 kts 29°
2026-05-05 04:17 37.52334 -77.71506 33024 ft 466 kts 29°
2026-05-05 04:18 37.57794 -77.67088 33025 ft 466 kts 29°
2026-05-05 04:18 37.63259 -77.62686 33019 ft 465 kts 29°
2026-05-05 04:19 37.68722 -77.58281 33017 ft 465 kts 29°
2026-05-05 04:19 37.74171 -77.53867 33012 ft 465 kts 29°
2026-05-05 04:20 37.79614 -77.49450 33011 ft 465 kts 29°
2026-05-05 04:20 37.85055 -77.45019 33006 ft 465 kts 29°
2026-05-05 04:21 37.90495 -77.40575 33005 ft 465 kts 29°
2026-05-05 04:21 37.95939 -77.36126 33002 ft 465 kts 29°
2026-05-05 04:22 38.01381 -77.31685 32995 ft 465 kts 29°
2026-05-05 04:22 38.06830 -77.27230 32999 ft 465 kts 30°
2026-05-05 04:23 38.12261 -77.22787 32994 ft 464 kts 30°
2026-05-05 04:23 38.17681 -77.18326 32996 ft 464 kts 30°
2026-05-05 04:24 38.23101 -77.13866 32986 ft 463 kts 30°
2026-05-05 04:25 38.31183 -77.07120 32980 ft 464 kts 32°
2026-05-05 04:25 38.36354 -77.02201 32986 ft 464 kts 35°
2026-05-05 04:26 38.41434 -76.97121 32982 ft 464 kts 35°
2026-05-05 04:26 38.46519 -76.92124 32975 ft 463 kts 34°
2026-05-05 04:27 38.51657 -76.87169 32974 ft 463 kts 34°
2026-05-05 04:27 38.56809 -76.82209 32969 ft 463 kts 34°
2026-05-05 04:28 38.61946 -76.77243 32965 ft 463 kts 34°
2026-05-05 04:28 38.67073 -76.72261 32961 ft 462 kts 34°
2026-05-05 04:29 38.72195 -76.67275 32964 ft 462 kts 34°
2026-05-05 04:29 38.77315 -76.62281 32961 ft 462 kts 34°
2026-05-05 04:30 38.82431 -76.57283 32960 ft 462 kts 34°
2026-05-05 04:30 38.87518 -76.52297 32957 ft 462 kts 34°
2026-05-05 04:31 38.92624 -76.47297 32958 ft 462 kts 34°
2026-05-05 04:31 38.97737 -76.42279 32962 ft 462 kts 34°
2026-05-05 04:32 39.02835 -76.37252 32959 ft 462 kts 36°
2026-05-05 04:32 39.07734 -76.31885 32959 ft 463 kts 40°
2026-05-05 04:33 39.12439 -76.26217 32960 ft 463 kts 41°
2026-05-05 04:33 39.17145 -76.20541 32960 ft 464 kts 40°
2026-05-05 04:34 39.21914 -76.14927 32321 ft 466 kts 39°
2026-05-05 04:34 39.24339 -76.12102 31275 ft 474 kts 39°
2026-05-05 04:34 39.26774 -76.09271 30360 ft 477 kts 40°
2026-05-05 04:34 39.29275 -76.06351 29443 ft 479 kts 40°
2026-05-05 04:35 39.31749 -76.03451 28501 ft 481 kts 40°
2026-05-05 04:35 39.34228 -76.00537 27507 ft 484 kts 40°
2026-05-05 04:35 39.36731 -75.97588 26439 ft 488 kts 40°
2026-05-05 04:35 39.39247 -75.94621 25408 ft 490 kts 40°
2026-05-05 04:36 39.41759 -75.91659 24496 ft 489 kts 40°
2026-05-05 04:36 39.44261 -75.88703 23883 ft 482 kts 40°
2026-05-05 04:36 39.46703 -75.85808 23509 ft 471 kts 40°
2026-05-05 04:36 39.49098 -75.82966 23104 ft 465 kts 40°
2026-05-05 04:37 39.51472 -75.80142 22701 ft 462 kts 40°
2026-05-05 04:37 39.53834 -75.77335 22302 ft 460 kts 40°
2026-05-05 04:37 39.56188 -75.74541 21904 ft 458 kts 40°
2026-05-05 04:37 39.58522 -75.71775 21515 ft 456 kts 40°
2026-05-05 04:38 39.60854 -75.69010 21119 ft 454 kts 40°
2026-05-05 04:38 39.62393 -75.67179 20862 ft 452 kts 40°
2026-05-05 04:38 39.64703 -75.64425 20465 ft 450 kts 40°
2026-05-05 04:38 39.67007 -75.61680 20073 ft 448 kts 40°
2026-05-05 04:39 39.69297 -75.58951 19645 ft 446 kts 40°
2026-05-05 04:39 39.71568 -75.56225 19189 ft 444 kts 41°
2026-05-05 04:39 39.73824 -75.53501 18733 ft 442 kts 41°
2026-05-05 04:39 39.76068 -75.50785 18281 ft 440 kts 41°
2026-05-05 04:40 39.78301 -75.48081 17831 ft 437 kts 41°
2026-05-05 04:40 39.80521 -75.45397 17385 ft 435 kts 41°
2026-05-05 04:40 39.82729 -75.42726 16948 ft 432 kts 40°
2026-05-05 04:40 39.84922 -75.40073 16563 ft 429 kts 40°
2026-05-05 04:41 39.87095 -75.37445 16127 ft 425 kts 40°
2026-05-05 04:41 39.89259 -75.34829 15720 ft 420 kts 40°
2026-05-05 04:41 39.91337 -75.32308 15583 ft 405 kts 40°
2026-05-05 04:41 39.93378 -75.29824 15450 ft 390 kts 40°
2026-05-05 04:42 39.95325 -75.27454 15330 ft 376 kts 40°
2026-05-05 04:42 39.97200 -75.25174 15188 ft 362 kts 40°
2026-05-05 04:42 39.99012 -75.22968 15061 ft 350 kts 40°
2026-05-05 04:42 40.00759 -75.20837 14860 ft 336 kts 40°
2026-05-05 04:43 40.02448 -75.18778 14137 ft 330 kts 39°
2026-05-05 04:43 40.04118 -75.16745 13381 ft 326 kts 39°
2026-05-05 04:43 40.05765 -75.14741 12628 ft 322 kts 39°
2026-05-05 04:43 40.07374 -75.12779 11944 ft 320 kts 39°
2026-05-05 04:44 40.08995 -75.10802 11633 ft 316 kts 39°
2026-05-05 04:44 40.10580 -75.08863 11406 ft 313 kts 39°
2026-05-05 04:44 40.12173 -75.06909 11092 ft 313 kts 40°
2026-05-05 04:44 40.13749 -75.04978 10797 ft 314 kts 40°
2026-05-05 04:45 40.15338 -75.03031 10507 ft 312 kts 40°
2026-05-05 04:45 40.16928 -75.01084 10204 ft 312 kts 40°
2026-05-05 04:45 40.18512 -74.99146 9912 ft 311 kts 41°
2026-05-05 04:45 40.20087 -74.97217 9616 ft 311 kts 40°
2026-05-05 04:46 40.21671 -74.95284 9340 ft 311 kts 41°
2026-05-05 04:46 40.23255 -74.93343 9046 ft 311 kts 41°
2026-05-05 04:46 40.24836 -74.91401 8759 ft 310 kts 41°
2026-05-05 04:46 40.26376 -74.89430 8461 ft 309 kts 44°
2026-05-05 04:47 40.27854 -74.87392 8173 ft 308 kts 45°
2026-05-05 04:47 40.29303 -74.85330 7915 ft 307 kts 46°
2026-05-05 04:47 40.30745 -74.83260 7839 ft 308 kts 46°
2026-05-05 04:47 40.32190 -74.81189 7755 ft 308 kts 45°
2026-05-05 04:48 40.33637 -74.79132 7656 ft 307 kts 45°
2026-05-05 04:48 40.35092 -74.77072 7554 ft 307 kts 45°
2026-05-05 04:48 40.36541 -74.75025 7458 ft 307 kts 45°
2026-05-05 04:48 40.37989 -74.72987 7353 ft 305 kts 45°
2026-05-05 04:49 40.39437 -74.70955 7250 ft 305 kts 45°
2026-05-05 04:49 40.40899 -74.68943 7139 ft 303 kts 40°
2026-05-05 04:49 40.42606 -74.67343 7043 ft 300 kts 24°
2026-05-05 04:49 40.44530 -74.66367 6948 ft 294 kts
2026-05-05 04:50 40.46529 -74.65830 6847 ft 293 kts
2026-05-05 04:50 40.48533 -74.65297 6754 ft 293 kts
2026-05-05 04:50 40.50539 -74.64760 6663 ft 294 kts
2026-05-05 04:50 40.52514 -74.64232 6560 ft 293 kts
2026-05-05 04:51 40.54507 -74.63695 6458 ft 292 kts
2026-05-05 04:51 40.56498 -74.63155 6360 ft 292 kts
2026-05-05 04:51 40.58490 -74.62617 6263 ft 293 kts
2026-05-05 04:51 40.60493 -74.62084 6171 ft 293 kts
2026-05-05 04:52 40.62493 -74.61550 6067 ft 292 kts
2026-05-05 04:52 40.64488 -74.61014 5977 ft 292 kts
2026-05-05 04:52 40.66474 -74.60479 5884 ft 292 kts
2026-05-05 04:52 40.68464 -74.59944 5782 ft 291 kts
2026-05-05 04:53 40.70456 -74.59410 5694 ft 293 kts
2026-05-05 04:53 40.72446 -74.58877 5606 ft 292 kts
2026-05-05 04:53 40.74436 -74.58340 5504 ft 291 kts
2026-05-05 04:53 40.76420 -74.57805 5400 ft 291 kts
2026-05-05 04:54 40.78406 -74.57267 5311 ft 291 kts
2026-05-05 04:54 40.80396 -74.56726 5219 ft 292 kts
2026-05-05 04:54 40.82382 -74.56187 5125 ft 291 kts
2026-05-05 04:54 40.84321 -74.55401 5022 ft 295 kts 27°
2026-05-05 04:55 40.85880 -74.53654 4934 ft 298 kts 55°
2026-05-05 04:55 40.86740 -74.51193 4845 ft 294 kts 77°
2026-05-05 04:55 40.87276 -74.48579 4741 ft 294 kts 77°
2026-05-05 04:55 40.87806 -74.45970 4654 ft 293 kts 78°
2026-05-05 04:56 40.88336 -74.43363 4564 ft 294 kts 77°
2026-05-05 04:56 40.88870 -74.40758 4457 ft 293 kts 77°
2026-05-05 04:56 40.89404 -74.38165 4365 ft 292 kts 77°
2026-05-05 04:56 40.89936 -74.35578 4273 ft 291 kts 77°
2026-05-05 04:57 40.90469 -74.32995 4184 ft 292 kts 77°
2026-05-05 04:57 40.91001 -74.30411 4088 ft 291 kts 77°
2026-05-05 04:57 40.91530 -74.27835 3983 ft 290 kts 77°
2026-05-05 04:57 40.92056 -74.25259 3900 ft 290 kts 78°
2026-05-05 04:58 40.92574 -74.22705 3811 ft 289 kts 78°
2026-05-05 04:58 40.93090 -74.20144 3714 ft 288 kts 80°
2026-05-05 04:58 40.93211 -74.17554 3621 ft 280 kts 103°
2026-05-05 04:58 40.92624 -74.15156 3534 ft 271 kts 124°
2026-05-05 04:59 40.91472 -74.13256 3432 ft 261 kts 146°
2026-05-05 04:59 40.89968 -74.11977 3349 ft 256 kts 156°
2026-05-05 04:59 40.88447 -74.10847 3329 ft 241 kts 156°
2026-05-05 04:59 40.87060 -74.09799 3182 ft 220 kts 156°
2026-05-05 05:00 40.85798 -74.08845 3100 ft 195 kts 157°
2026-05-05 05:00 40.84684 -74.08111 3016 ft 165 kts 168°
2026-05-05 05:00 40.83635 -74.07867 2904 ft 147 kts 184°
2026-05-05 05:00 40.82642 -74.08023 2752 ft 143 kts 198°
2026-05-05 05:01 40.81724 -74.08524 2575 ft 144 kts 207°
2026-05-05 05:01 40.80827 -74.09096 2398 ft 144 kts 206°
2026-05-05 05:01 40.79928 -74.09669 2213 ft 143 kts 206°
2026-05-05 05:01 40.79030 -74.10242 2027 ft 144 kts 206°
2026-05-05 05:02 40.78133 -74.10815 1829 ft 143 kts 206°
2026-05-05 05:02 40.77251 -74.11378 1645 ft 142 kts 205°
2026-05-05 05:02 40.76365 -74.11943 1457 ft 142 kts 205°
2026-05-05 05:02 40.75473 -74.12512 1271 ft 143 kts 204°
2026-05-05 05:03 40.74575 -74.13084 1079 ft 143 kts 205°
2026-05-05 05:03 40.73681 -74.13654 890 ft 143 kts 205°
2026-05-05 05:03 40.72786 -74.14224 697 ft 143 kts 205°
2026-05-05 05:03 40.71892 -74.14793 511 ft 142 kts 205°
2026-05-05 05:04 40.71003 -74.15359 322 ft 143 kts 205°
2026-05-05 05:04 40.70112 -74.15927 136 ft 143 kts 205°
2026-05-05 05:04 40.69219 -74.16489 39 ft 137 kts 205°
2026-05-05 05:04 40.68456 -74.16989 20 ft 100 kts 207°
2026-05-05 05:05 40.68106 -74.17211 20 ft 17 kts 202°
2026-05-05 05:05 40.68023 -74.17276 19 ft 11 kts 221°
2026-05-05 05:05 40.67975 -74.17359 17 ft 12 kts 243°
2026-05-05 05:05 40.67967 -74.17385 18 ft 0 kts 248°
2026-05-05 05:07 40.68551 -74.17960 20 ft 0 kts 359°